User: anonymous   Login
Location: Saint Peter Port
(49.4500°N, 2.5330°W)
Time: 12:04:18
(UTC+01:00)
Language:

Cosmos 2242 Rocket - Orbit

View from above orbital plane
View from above orbital plane
View from above satellite
View from above satellite

Ground track
Ground track

The orbit data is extracted from the following two-line orbital elements,

1 22627U 93024B   18144.93030125 +.00000042 +00000-0 +26776-5 0  9997
2 22627 082.5202 142.7768 0022077 295.1920 064.7003 14.78117492352634
Epoch (UTC): 24 May 2018 22:19:38
Eccentricity: 0.0022077
inclination: 82.5202°
perigee height: 620 km
apogee height: 651 km
right ascension of ascending node: 142.7768°
argument of perigee: 295.1920°
revolutions per day: 14.78117492
mean anomaly at epoch: 64.7003°
orbit number at epoch: 35263

The dashed part of the orbit path shows where the satellite is in the earth's shadow,  

DLR